Location: Amsterdam
(30.7274°N, 84.4357°W)
Time: 21:12:23
(UTC+00:00)

Injun/Solrad 3 - Pass Details

Date: 25 February 2026
Orbit: 872 x 984 km, 66.8° (Epoch: 8 March)

Event Time Altitude Azimuth Distance (km) Brightness Sun altitude
Rises 15:38:11 0° 234° (SW) 3,447 10.8 39.2°
Reaches altitude 10° 15:41:02 10° 247° (WSW) 2,515 10.1 39.6°
Maximum altitude 15:45:51 27° 303° (WNW) 1,636 9.0 40.3°
Drops below altitude 10° 15:50:46 10° 0° (N) 2,556 10.0 41.0°
Sets 15:53:42 0° 13° (NNE) 3,515 10.6 41.4°
